Regional Weather Roundup
Issued by NWS Charleston, SC

Home | Current Version | Previous Version | Text Only | Print | Product List | Glossary On
Versions: 1 2 3 4 5 6 7 8 9 10 11 12 13 14 15 16 17 18 19 20 21 22 23 24 25 26 27 28 29 30 31 32 33 34 35 36 37 38 39 40 41 42 43 44 45 46 47 48 49 50
000
ASUS42 KCHS 301226
RWRCHS

REGIONAL WEATHER ROUNDUP
NATIONAL WEATHER SERVICE CHARLESTON SC
800 AM EDT THU MAR 30 2017

NOTE: "FAIR" INDICATES FEW OR NO CLOUDS BELOW 12,000 FEET WITH NO
SIGNIFICANT WEATHER AND/OR OBSTRUCTIONS TO VISIBILITY.

NOT ALL STATIONS ARE QUALITY CONTROLLED. USE DATA WITH CAUTION...
ESPECIALLY DEWPOINT OBSERVATIONS.

SCZ027-030-031-034>040-042>050-301300-
...SOUTHEAST SOUTH CAROLINA...

CITY           SKY/WX    TMP DP  RH WIND       PRES   REMARKS
N CHARLESTON   MOCLDY    67  63  87 E6        30.05R
6HR MIN TEMP:  65; 6HR MAX TEMP:  67;

WATERFRONT PRK   N/A     67  65  93 E9        30.03S
JOHNS ISLAND   PTSUNNY   70  66  88 E10       30.05S
PINOPOLIS        N/A     61  61 100 E6        29.96S
MONCKS CORNER  CLOUDY    61  59  94 E3        30.06S
SUMMERVILLE    PTSUNNY   61  61 100 CALM      30.06S
BEAUFORT MCAS  MOCLDY    68  67  96 E3        30.03S
6HR MIN TEMP:  67; 6HR MAX TEMP:  69;

BEAUFORT ARPT  FAIR      68  64  88 E6        30.03S FOG
HILTON HEAD IS CLEAR     64  64 100 NE7       30.03R
WALTERBORO     SUNNY     63  63 100 E3        30.06S
ALLENDALE      CLOUDY    68  64  88 VRB6      30.03S

...SOUTHERN MIDLANDS AND PEE DEE...

CITY           SKY/WX    TMP DP  RH WIND       PRES   REMARKS
GEORGETOWN     PTSUNNY   64  59  82 E9        30.09R
KINGSTREE      FAIR      57  55  94 NE5       30.08F
ORANGEBURG     CLOUDY    64  61  90 E7        30.06S
6HR MIN TEMP:  62; 6HR MAX TEMP:  66;

BARNWELL       CLOUDY    68  66  94 E8        30.05R
AIKEN          PTSUNNY   63  61  94 E9        30.07S
MANNING        PTSUNNY   59  55  88 E3        30.08R
COLUMBIA       CLOUDY    65  60  84 E9        30.05S
6HR MIN TEMP:  64; 6HR MAX TEMP:  66;

SUMTER         MOCLDY    59  55  88 NE8       30.05S
6HR MIN TEMP:  57; 6HR MAX TEMP:  62;

FLORENCE       CLEAR     56  56 100 E7        30.10R
6HR MIN TEMP:  55; 6HR MAX TEMP:  58;

MYRTLE BEACH   NOT AVBL
N MYRTLE BEACH SUNNY     58  55  90 NE7       30.10R
6HR MIN TEMP:  56; 6HR MAX TEMP:  62;


$$

GAZ063-065-086>088-099>101-113>116-118-119-134>141-150-301300-
...SOUTHEAST GEORGIA...

CITY           SKY/WX    TMP DP  RH WIND       PRES   REMARKS
SAVANNAH ARPT  FOG       68  65  90 E9        30.02S VSB 1/2
6HR MIN TEMP:  65; 6HR MAX TEMP:  68;

HUNTER AAF     MOCLDY    67  67 100 E6        30.00R FOG
6HR MIN TEMP:  63; 6HR MAX TEMP:  67;

FORT STEWART   CLOUDY    64  63  95 NE3       29.99R
6HR MIN TEMP:  62; 6HR MAX TEMP:  65; 6HR PCP: TRACE;

STATESBORO     CLOUDY    68  32  26 E6        30.02S FOG
SYLVANIA       CLOUDY   N/A N/A N/A SE6       30.04S
CLAXTON        PTSUNNY  N/A N/A N/A NE5       30.02R HAZE

...CSRA...CENTRAL AND FAR SOUTHEAST GEORGIA...

CITY           SKY/WX    TMP DP  RH WIND       PRES   REMARKS
THOMSON        CLOUDY    66  62  89 SW8       30.07R
AUGUSTA-BUSH   CLOUDY    65  63  93 CALM      30.02R FOG
6HR MIN TEMP:  62; 6HR MAX TEMP:  66;

AUGUSTA-DANIEL CLOUDY    67  62  84 SE7       30.03S
SWAINSBORO     PTSUNNY   64  63  94 SE3       30.02R
VIDALIA        CLOUDY    64  63  94 CALM      30.02R
EASTMAN        CLOUDY    61  61  99 CALM      30.03R FOG
HAZLEHURST     PTSUNNY   66  66 100 CALM      30.00R
ALMA           CLOUDY    65  64  97 CALM      30.00R
6HR MIN TEMP:  64; 6HR MAX TEMP:  69;

WAYCROSS       PTCLDY    66  66 100 CALM      30.00R
JESUP          CLOUDY    68  63  83 CALM      30.00S
BAXLEY         CLOUDY    68  68 100 CALM      30.01R
BRUNSWICK      MOCLDY    70  68  94 SE6       30.01R
SAINT SIMONS   PTCLDY    69  65  86 E8        30.00R
6HR MIN TEMP:  68; 6HR MAX TEMP:  72;


$$

SCZ027-028-034-036>038-045-046-048>050-GAZ119-141-301300-
...LAKE AND SUPPLEMENTAL COASTAL OBSERVATIONS...

STATION/POSITION TIME  TEMP    WIND        PRES    WAVE   SWELL
                       AIR SEA DIR/SP/G            HT/PER HT/PER/DIR
                 (UTC) (F)     (DEG/KT/KT) (MB)    (FT/S) (FT/S/D)
WINYAH BAY       1130   62      60/  7     1018.0S
LAKE MURRAY      1150   64     110/  4/  6 1017.3S
ACE BASIN NERRS  1130   66      40/  1     1017.0S
FORT PULASKI     1200   66 67  110/  6/  8 1016.9
SAPELO ISLAND    1200   68     100/  4     1016.0

$$

ANZ835-935-AMZ111-154-330-350-352-354-370-450-454-472-301300-
...C-MAN AND BUOY OBSERVATIONS...

STATION/POSITION TIME  TEMP    WIND        PRES    WAVE   SWELL
                       AIR SEA DIR/SP/G            HT/PER HT/PER/DIR
                 (UTC) (F)     (DEG/KT/KT) (MB)    (FT/S) (FT/S/D)
BUOY 41004       1150   72 70  100/ 16/ 17 1016.8R   5/10   3/120/10
BUOY 41008       1150   65 65   60/  6/  8 1016.0R   3/10   3/110/10
FOLLY BEACH CMAN 1200   65      70/  9/ 11 1018.0R
CAPERS NEARSHORE NOT AVBL
FRIPP NEARSHORE  1208   65 63   80/  8/ 10 1016.5F


STATION/POSITION TIME  TEMP    WIND        PRES    WAVE   SWELL
                       AIR SEA DIR/SP/G            HT/PER HT/PER/DIR
                 (UTC) (F)     (DEG/KT/KT) (MB)    (FT/S) (FT/S/D)
5E ST. MARYS GA  1200      68                N/A     3/ 9   2/110/11
FRYING PAN BUOY  1210   69 74   80/ 12/ 17 1019.0
BUOY 41025       1150   61 76   20/ 17/ 23 1020.5R   8/10   7/ 70/10
CAPE LOOKOUT NC  1200   58      20/ 10/ 13 1020.3R
BUOY 41002       1150   68 72   80/ 10/ 14 1018.2R   7/ 9   7/ 90/ 9
BUOY 41010       NOT AVBL
ST AUGUSTINE FL  1200   69 67  160/ 11/ 11 1016.7R


$$



USA.gov is the U.S. government's official web portal to all federal, state and local government web resources and services.